This demonstration page uses our WeatherBlox Daily Observations layout. Learn more.

Left ArrowRight Arrow

Hourly Observations for April 29, 2020

Temp ( °F °C ) Dew Point ( °F °C ) Humidity (%) Winds ( mph kmh ) Pressure ( in mb ) Visibility ( mi km ) Precip ( " mm )
12:15 am 00:15 Clear 47 8.2 35 1.7 64 64 WNW 9 15 30.04 1017 10 16 N/A
12:35 am 00:35 Clear 46 7.9 34 1.1 62 62 WNW 9 15 30.04 1017 10 16 N/A
12:55 am 00:55 Clear 45 7.1 34 1 65 65 WNW 9 15 30.07 1018 10 16 N/A
1:15 am 01:15 Clear 45 7.4 34 1 64 64 NW 9 15 30.07 1018 10 16 N/A
1:35 am 01:35 Clear 48 9 33 0.8 57 57 NW 10 17 30.05 1018 10 16 N/A
1:55 am 01:55 Clear 49 9.5 32 undefined 52 52 NW 12 19 30.05 1018 10 16 N/A
2:15 am 02:15 Clear 49 9.4 32 -0.1 52 52 WNW 10 17 30.05 1018 10 16 N/A
2:35 am 02:35 Clear 50 10 30 -1 47 47 WNW 15 24 30.04 1017 10 16 N/A
2:55 am 02:55 Clear 49 9.6 30 -1.2 47 47 WNW 10 17 30.03 1017 10 16 N/A
3:15 am 03:15 Clear 49 9.3 29 -1.5 47 47 WNW 14 22 30.03 1017 10 16 N/A
3:35 am 03:35 Clear 50 10 28 -2 43 43 WNW 20 31 30.01 1016 10 16 N/A
3:55 am 03:55 Clear 51 10.5 28 -2 42 42 WNW 17 28 30.01 1016 10 16 N/A
4:15 am 04:15 Clear 51 10.5 30 -1.2 44 44 NW 17 28 30.01 1016 10 16 N/A
4:35 am 04:35 Clear 51 10.3 30 -1.2 45 45 NW 24 39 30.02 1017 10 16 N/A
4:55 am 04:55 Partly Cloudy 51 10.5 33 0.3 50 50 NNW 28 44 30.03 1017 10 16 N/A
5:15 am 05:15 Partly Cloudy 50 10.2 36 2.1 57 57 NNW 28 44 30.05 1018 10 16 N/A
5:35 am 05:35 Partly Cloudy 49 9.7 37 2.6 62 62 NNW 17 28 30.06 1018 10 16 N/A
5:55 am 05:55 Partly Cloudy 48 9.1 37 3 66 66 NNW 15 24 30.08 1019 10 16 N/A
6:15 am 06:15 Partly Cloudy 48 8.7 37 3 68 68 NNW 14 22 30.09 1019 10 16 N/A
6:35 am 06:35 Mostly Cloudy 48 9.1 38 3.5 68 68 NNW 15 24 30.09 1019 10 16 N/A
6:55 am 06:55 Mostly Cloudy 48 8.8 39 3.7 71 71 NNW 18 30 30.10 1019 10 16 N/A
7:15 am 07:15 Mostly Cloudy 48 9 39 4 71 71 NNW 17 28 30.11 1020 10 16 N/A
7:35 am 07:35 Mostly Cloudy 48 9.1 39 4.1 71 71 NNW 18 30 30.11 1020 10 16 N/A
7:55 am 07:55 Sunny 49 9.6 40 4.5 71 71 NNW 23 37 30.11 1020 10 16 N/A
8:15 am 08:15 Sunny 50 10 40 4.5 69 69 NNW 22 35 30.11 1020 10 16 N/A
8:35 am 08:35 Mostly Cloudy 51 10.3 40 4.5 68 68 NNW 17 28 30.13 1020 10 16 N/A
8:55 am 08:55 Cloudy 50 10.1 40 4.5 68 68 NNW 24 39 30.14 1021 10 16 N/A
9:15 am 09:15 Cloudy 51 10.5 40 4.7 68 68 NNW 22 35 30.14 1021 10 16 N/A
9:35 am 09:35 Cloudy 53 11.6 40 4.7 63 63 NNW 26 43 30.14 1021 10 16 N/A
9:55 am 09:55 Partly Cloudy 52 11.3 41 4.8 65 65 N 22 35 30.15 1021 10 16 N/A
10:15 am 10:15 Sunny 54 12.2 40 4.7 60 60 N 25 41 30.14 1021 10 16 N/A
10:35 am 10:35 Partly Cloudy 55 12.8 41 4.8 59 59 N 23 37 30.14 1021 10 16 N/A
10:55 am 10:55 Partly Cloudy 56 13.1 41 4.8 57 57 NNW 20 31 30.15 1021 10 16 N/A
11:15 am 11:15 Mostly Cloudy 57 14 41 4.8 54 54 N 17 28 30.14 1021 10 16 N/A
11:35 am 11:35 Partly Cloudy 58 14.6 40 4.4 51 51 N 21 33 30.14 1021 10 16 N/A
11:55 am 11:55 Partly Cloudy 60 15.6 40 4.4 47 47 NNW 18 30 30.14 1021 10 16 N/A
12:15 pm 12:15 Mostly Cloudy 60 15.6 40 4.3 47 47 NNW 17 28 30.14 1021 10 16 N/A
12:35 pm 12:35 Partly Cloudy 61 16 39 3.9 45 45 N 20 31 30.13 1020 10 16 N/A
12:55 pm 12:55 Partly Cloudy 62 16.4 38 3.5 42 42 N 17 28 30.12 1020 10 16 N/A
1:15 pm 13:15 Sunny 63 17.1 39 3.9 42 42 N 15 24 30.10 1019 10 16 N/A
1:35 pm 13:35 Sunny 64 17.9 38 3.4 38 38 NNW 15 24 30.09 1019 10 16 N/A
1:55 pm 13:55 Sunny 64 17.9 38 3.1 37 37 N 16 26 30.08 1019 10 16 N/A
2:15 pm 14:15 Sunny 65 18.1 37 2.7 36 36 NNW 15 24 30.08 1019 10 16 N/A
2:35 pm 14:35 Sunny 66 18.7 37 2.7 35 35 N 16 26 30.08 1019 10 16 N/A
2:55 pm 14:55 Sunny 66 19 37 2.9 34 34 NNW 14 22 30.07 1018 10 16 N/A
3:15 pm 15:15 Sunny 67 19.2 37 2.6 33 33 NNW 18 30 30.05 1018 10 16 N/A
3:35 pm 15:35 Sunny 67 19.3 35 1.9 31 31 N 17 28 30.05 1018 10 16 N/A
3:55 pm 15:55 Sunny 67 19.6 37 2.5 32 32 N 17 28 30.05 1018 10 16 N/A
4:15 pm 16:15 Sunny 67 19.5 36 2.2 32 32 NNW 17 28 30.04 1017 10 16 N/A
4:35 pm 16:35 Sunny 67 19.2 36 2.4 33 33 N 17 28 30.04 1017 10 16 N/A
4:55 pm 16:55 Sunny 66 19.1 36 2.3 33 33 N 18 30 30.05 1018 10 16 N/A
5:15 pm 17:15 Sunny 67 19.2 37 2.6 33 33 N 20 31 30.05 1018 10 16 N/A
5:35 pm 17:35 Sunny 66 18.9 37 2.9 35 35 N 13 20 30.06 1018 10 16 N/A
5:55 pm 17:55 Sunny 65 18.5 36 2.3 34 34 N 13 20 30.06 1018 10 16 N/A
6:15 pm 18:15 Sunny 65 18.3 37 3 36 36 NNE 20 31 30.06 1018 10 16 N/A
6:35 pm 18:35 Sunny 64 17.7 37 2.9 37 37 N 17 28 30.07 1018 10 16 N/A
6:55 pm 18:55 Sunny 64 17.5 37 2.7 37 37 NNE 13 20 30.07 1018 10 16 N/A
7:15 pm 19:15 Sunny 63 17.1 37 3 39 39 NNE 12 19 30.07 1018 10 16 N/A
7:35 pm 19:35 Sunny 62 16.6 38 3.3 41 41 N 12 19 30.07 1018 10 16 N/A
7:55 pm 19:55 Sunny 60 15.8 38 3.2 43 43 NNE 13 20 30.08 1019 10 16 N/A
8:15 pm 20:15 Sunny 58 14.6 38 3.3 47 47 NNE 9 15 30.09 1019 10 16 N/A
8:35 pm 20:35 Clear 56 13.5 39 3.8 52 52 NNE 7 11 30.10 1019 10 16 N/A
8:55 pm 20:55 Clear 53 11.7 38 3.5 57 57 NNE 7 11 30.12 1020 10 16 N/A
9:15 pm 21:15 Clear 51 10.4 37 3 60 60 NE 6 9 30.13 1020 10 16 N/A
9:35 pm 21:35 Clear 49 9.6 36 2.1 60 60 NE 6 9 30.15 1021 10 16 N/A
9:55 pm 21:55 Clear 47 8.6 35 1.5 61 61 NE 5 7 30.16 1021 10 16 N/A
10:15 pm 22:15 Clear 49 9.5 37 2.6 62 62 NE 6 9 30.15 1021 10 16 N/A
10:35 pm 22:35 Clear 46 7.7 35 1.7 66 66 NE 3 6 30.17 1022 10 16 N/A
10:55 pm 22:55 Clear 45 7.3 35 1.6 67 67 NE 5 7 30.18 1022 10 16 N/A
11:15 pm 23:15 Clear 44 6.8 36 2.4 74 74 ENE 8 13 30.17 1022 10 16 N/A
11:35 pm 23:35 Clear 45 7.1 36 2.1 71 71 ENE 6 9 30.17 1022 10 16 N/A
11:55 pm 23:55 Clear 45 7.2 36 2.2 71 71 ENE 6 9 30.16 1021 10 16 N/A

Powered by AerisWeather